Location: Atherton
(17.2661°S, 145.4859°E)
Time: 18:44:26
(UTC+10:00)

ACS3 Solar Sail - Pass Details

Date: 20 May 2025
Orbit: 920 x 1019 km, 97.5° (Epoch: 20 June)

Event Time Altitude Azimuth Distance (km) Brightness Sun altitude
Rises 18:47:23 0° 189° (S) 3,767 4.8 -13.3°
Reaches altitude 10° 18:50:21 10° 202° (SSW) 2,818 4.3 -13.9°
Maximum altitude 18:55:20 25° 253° (WSW) 1,949 4.1 -15.1°
Drops below altitude 10° 19:00:19 10° 305° (NW) 2,806 5.4 -16.2°
Sets 19:03:17 0° 318° (NW) 3,746 5.9 -16.9°
